Location: Ostrava
(49.8330°N, 18.2830°E)
Time: 06:34:24
(UTC+02:00)

NOAA 19 - Visible Passes

Search period start: 01 April 2015 00:00
Search period end: 11 April 2015 00:00
Orbit: 842 x 863 km, 99.0° (Epoch: 31 March)

Date Brightness Start Highest point End Pass type
(mag) Time Alt. Az. Time Alt. Az. Time Alt. Az.
01 Apr 6.6 02:24:57 10° NE 02:29:40 29° E 02:30:08 28° ESE visible
01 Apr 5.5 04:05:21 10° N 04:10:42 51° WNW 04:12:11 40° WSW visible
01 Apr 7.2 05:48:39 10° NNW 05:50:21 11° NW 05:51:48 10° WNW visible
02 Apr 6.9 02:13:59 10° NE 02:18:20 24° E 02:18:55 23° E visible
02 Apr 5.3 03:54:05 10° N 03:59:32 62° WNW 04:00:58 46° SW visible
02 Apr 7.1 05:36:42 10° NNW 05:39:20 13° NW 05:41:46 10° WNW visible
03 Apr 7.1 02:03:07 10° NE 02:06:57 19° E 02:07:42 19° E visible
03 Apr 5.1 03:42:49 10° NNE 03:48:22 75° WNW 03:49:45 51° SW visible
03 Apr 7.0 05:25:02 10° NNW 05:28:18 16° NW 05:31:24 10° W visible
04 Apr 7.4 01:52:23 10° NE 01:55:34 16° E 01:56:28 15° E visible
04 Apr 5.1 03:31:36 10° NNE 03:37:10 89° WNW 03:38:32 54° SSW visible
04 Apr 6.8 05:13:29 10° NNW 05:17:15 19° NW 05:20:35 11° W visible
05 Apr 7.6 01:41:55 10° ENE 01:44:09 13° E 01:45:16 12° E visible
05 Apr 5.3 03:20:24 10° NNE 03:25:57 76° ESE 03:27:19 52° S visible
05 Apr 6.6 05:02:01 10° N 05:06:11 22° WNW 05:09:22 13° W visible
06 Apr 5.5 03:09:13 10° NNE 03:14:43 63° ESE 03:16:06 48° SSE visible
06 Apr 6.4 04:50:35 10° N 04:55:06 26° WNW 04:58:09 16° WSW visible
07 Apr 5.8 02:58:05 10° NNE 03:03:28 51° E 03:04:52 41° SE visible
07 Apr 6.2 04:39:12 10° N 04:44:01 31° WNW 04:46:56 19° WSW visible
08 Apr 6.1 02:46:57 10° NNE 02:52:11 42° E 02:53:39 35° SE visible
08 Apr 6.0 04:27:51 10° N 04:32:54 36° WNW 04:35:42 22° WSW visible
09 Apr 6.4 02:35:53 10° NNE 02:40:53 35° E 02:42:25 30° SE visible
09 Apr 5.7 04:16:32 10° N 04:21:45 43° WNW 04:24:29 25° WSW visible
10 Apr 6.7 02:24:51 10° NE 02:29:34 29° E 02:31:12 25° ESE visible
10 Apr 5.5 04:05:14 10° N 04:10:36 52° WNW 04:13:15 29° SW visible
